[[{"header":{"parameterUnit":"m.s-1","parameterCategory":1,"la1":30.2991,"la2":30.254,"lo1":-89.0895,"lo2":-89.0444,"dy":0.0017,"dx":0.0017,"nx":28,"ny":28,"refTime":"2025-04-15T21:00:00:Z","depth":0,"parameterNumber":2,"parameterNumberName":"U-component_of_WINDS"},"data":[0,0,0,0,0,0,0,0,0,0,0,0,0,0,0,0,0,0,0,0,0,0,0,0,0,0,0,0,0,0,0,0,0,0,0,0,0,0,0,0,0,0,0,0,0,0,0,0,0,0,0,0,0,0,0,0,0,0,-0.4115,-0.4115,0,-0.4113,-0.4113,-0.4113,-0.4106,-0.4105,-0.4105,-0.4105,-0.4104,-0.4104,-0.4104,0,0,0,0,0,0,0,0,0,0,0,0,0,-0.4113,-0.4113,-0.4115,-0.4115,-0.4115,-0.4113,-0.4113,-0.4113,-0.4106,-0.4105,-0.4105,-0.4105,-0.4104,-0.4104,-0.4104,0,0,0,0,0,0,0,0,0,0,0,0,0,-0.4113,-0.4113,-0.4115,-0.4111,-0.4111,-0.4113,-0.4113,-0.4113,-0.4106,-0.4105,-0.4105,-0.4105,-0.4104,-0.4104,-0.4104,-0.4111,0,0,-0.4105,-0.4105,0,0,0,0,0,0,0,0,-0.4113,-0.4113,-0.4112,-0.4111,-0.4111,-0.4109,-0.4112,-0.4112,-0.4106,-0.4108,-0.4105,-0.4105,-0.4106,-0.4106,-0.4106,-0.4111,-0.4111,-0.4105,-0.4105,-0.4105,-0.4105,0,0,0,0,0,0,0,-0.4113,-0.4113,-0.4114,-0.4112,-0.4111,-0.411,-0.4109,-0.4112,-0.4108,-0.4107,-0.4107,-0.4107,-0.4106,-0.4106,-0.4106,-0.4111,-0.4105,-0.4105,-0.4105,-0.4105,-0.4121,-0.4122,0,0,0,0,0,0,-0.4114,-0.4113,-0.4114,-0.4114,-0.4111,-0.411,-0.411,-0.411,-0.4108,-0.4108,-0.4107,-0.4106,-0.4106,-0.4106,-0.4106,-0.4114,-0.4105,-0.4105,-0.4105,-0.4121,-0.4121,-0.4122,0,0,0,0,0,0,-0.4114,-0.4114,-0.4115,-0.4114,-0.4114,-0.411,-0.4111,-0.411,-0.4111,-0.4108,-0.4107,-0.4108,-0.4106,-0.4106,-0.411,-0.4114,-0.4105,-0.4105,-0.4121,-0.4121,-0.4122,-0.4131,0,0,0,0,0,0,-0.4114,-0.4114,-0.4116,-0.4114,-0.4114,-0.4118,-0.4111,-0.411,-0.4111,-0.411,-0.4109,-0.4108,-0.4105,-0.411,-0.411,-0.4114,-0.4106,-0.412,-0.4121,-0.4121,-0.413,-0.4131,-0.4133,0,0,0,0,0,-0.4113,-0.4118,-0.4116,-0.4116,-0.4116,-0.4118,-0.4118,-0.4115,-0.4111,-0.4114,-0.4112,-0.4108,-0.4113,-0.411,-0.411,-0.4115,-0.412,-0.4121,-0.4121,-0.4129,-0.4131,-0.4132,0,0,0,0,0,0,-0.4121,-0.4118,-0.4115,-0.412,-0.4119,-0.4117,-0.412,-0.4117,-0.4117,-0.4117,-0.4112,-0.4112,-0.4117,-0.4116,-0.4112,-0.4122,-0.4116,-0.4117,-0.4122,-0.4124,-0.4125,-0.4125,-0.4106,0,0,0,0,0,-0.4124,-0.4125,-0.4122,-0.4126,-0.4126,-0.4123,-0.4124,-0.4121,-0.4121,-0.4121,-0.4119,-0.4119,-0.4121,-0.4122,-0.4123,-0.413,-0.413,-0.4133,-0.4134,-0.4135,-0.4136,-0.414,-0.4142,-0.4124,-0.4124,-0.4124,0,0,-0.4128,-0.4127,-0.4128,-0.4128,-0.4127,-0.413,-0.4123,-0.4125,-0.4127,-0.4121,-0.4125,-0.4124,-0.4124,-0.4129,-0.4131,-0.4128,-0.4141,-0.4136,-0.4137,-0.4137,-0.4141,-0.4143,-0.4145,-0.4125,-0.4124,-0.4124,0,0,-0.4138,-0.4137,-0.414,-0.414,-0.4139,-0.4137,-0.4138,-0.4136,-0.4135,-0.4139,-0.4135,-0.4137,-0.414,-0.414,-0.414,-0.4151,-0.4148,-0.4151,-0.4159,-0.4163,-0.4164,-0.4165,-0.417,-0.4172,-0.4152,-0.4152,-0.4152,0,-0.4144,-0.4147,-0.4143,-0.4146,-0.4146,-0.4141,-0.4145,-0.4145,-0.4144,-0.4145,-0.4142,-0.4146,-0.4145,-0.4151,-0.4154,-0.4154,-0.4155,-0.4152,-0.4164,-0.4165,-0.4167,-0.4171,-0.4173,-0.4153,-0.4153,-0.4153,-0.4153,0,-0.4155,-0.4157,-0.416,-0.416,-0.4161,-0.4164,-0.4161,-0.4163,-0.416,-0.4158,-0.4163,-0.4162,-0.4163,-0.4164,-0.4162,-0.417,-0.4169,-0.4165,-0.4159,-0.4169,-0.4173,-0.4175,-0.4154,-0.4153,-0.4153,-0.4153,0,0,-0.4169,-0.4167,-0.4169,-0.4169,-0.4168,-0.417,-0.4173,-0.4174,-0.4176,-0.4176,-0.418,-0.4182,-0.4179,-0.418,-0.4177,-0.4181,-0.419,-0.4177,-0.4177,-0.418,-0.42,-0.4204,-0.4206,-0.4188,-0.4188,-0.4188,-0.4201,0,-0.4179,-0.4185,-0.4182,-0.4188,-0.4191,-0.4186,-0.4189,-0.4189,-0.4188,-0.419,-0.4188,-0.4191,-0.4186,-0.4186,-0.4189,-0.4188,-0.4195,-0.4187,-0.4192,-0.4192,-0.4193,-0.4208,-0.4211,-0.4223,-0.4202,-0.4203,-0.4203,0,-0.4192,-0.4192,-0.4199,-0.4198,-0.4199,-0.4202,-0.4204,-0.4205,-0.4206,-0.4205,-0.4206,-0.4202,-0.4207,-0.4201,-0.4207,-0.4202,-0.4204,-0.4204,-0.4204,-0.4205,-0.4198,-0.421,-0.4226,-0.4229,-0.4205,-0.4205,-0.4205,0,-0.4203,-0.4205,-0.421,-0.421,-0.4209,-0.4212,-0.4211,-0.4211,-0.4212,-0.4214,-0.4215,-0.4217,-0.4218,-0.4219,-0.4217,-0.4213,-0.4224,-0.4218,-0.4224,-0.4224,-0.4227,-0.4227,-0.4245,-0.4227,-0.4227,-0.4227,-0.4227,0,-0.4215,-0.4219,-0.4215,-0.4218,-0.4223,-0.422,-0.4225,-0.4224,-0.4224,-0.4227,-0.4223,-0.4226,-0.4223,-0.4225,-0.4224,-0.423,-0.423,-0.423,-0.4229,-0.4231,-0.4231,-0.4232,-0.4231,-0.4227,-0.4227,-0.4227,-0.4227,0,-0.4228,-0.4225,-0.423,-0.4229,-0.4229,-0.4233,-0.4232,-0.4235,-0.4233,-0.4238,-0.4238,-0.4236,-0.424,-0.4237,-0.4241,-0.4239,-0.4247,-0.4245,-0.4247,-0.4247,-0.4254,-0.4254,-0.4274,-0.4277,-0.4256,-0.4256,-0.4256,0,-0.4236,-0.424,-0.4239,-0.424,-0.424,-0.4243,-0.4245,-0.4241,-0.4243,-0.4244,-0.4247,-0.425,-0.4252,-0.4258,-0.4257,-0.426,-0.4258,-0.4265,-0.4259,-0.426,-0.426,-0.426,-0.4261,-0.4267,-0.4267,-0.4267,-0.4267,0,-0.4251,-0.425,-0.4252,-0.4254,-0.4256,-0.4257,-0.4258,-0.426,-0.4256,-0.4259,-0.4262,-0.4264,-0.4267,-0.4271,-0.4273,-0.4273,-0.427,-0.4269,-0.4271,-0.4273,-0.4274,-0.4275,-0.4252,-0.4269,-0.4269,-0.4269,-0.4269,-0.4269,-0.4263,-0.4266,-0.4266,-0.4269,-0.4269,-0.427,-0.4273,-0.4272,-0.4275,-0.4278,-0.4276,-0.428,-0.4281,-0.4284,-0.4284,-0.4288,-0.4285,-0.4288,-0.4288,-0.4289,-0.4291,-0.4273,-0.4288,-0.4288,-0.4288,-0.4288,-0.4288,0,-0.4278,-0.4278,-0.4281,-0.4282,-0.4285,-0.4281,-0.4282,-0.4285,-0.4288,-0.4289,-0.4292,-0.4296,-0.4299,-0.4299,-0.4302,-0.4305,-0.4304,-0.4306,-0.4306,-0.4307,-0.4292,-0.4291,-0.4307,-0.4307,-0.4307,-0.4307,-0.4307,-0.4307,-0.4286,-0.4292,-0.4291,-0.4297,-0.4297,-0.4301,-0.4302,-0.4303,-0.4304,-0.4309,-0.4312,-0.4311,-0.4312,-0.4316,-0.4319,-0.4319,-0.432,-0.4323,-0.4323,-0.431,-0.4308,-0.4306,-0.4305,-0.4324,-0.4324,-0.4337,-0.4337,-0.4337]},{"header":{"parameterUnit":"m.s-1","parameterCategory":1,"la1":30.2991,"la2":30.254,"lo1":-89.0895,"lo2":-89.0444,"dy":0.0017,"dx":0.0017,"nx":28,"ny":28,"refTime":"2025-04-15T21:00:00:Z","depth":0,"parameterNumber":3,"parameterNumberName":"V-component_of_WINDS"},"data":[0,0,0,0,0,0,0,0,0,0,0,0,0,0,0,0,0,0,0,0,0,0,0,0,0,0,0,0,0,0,0,0,0,0,0,0,0,0,0,0,0,0,0,0,0,0,0,0,0,0,0,0,0,0,0,0,0,0,2.4133,2.4133,0,2.4084,2.4083,2.4082,2.4008,2.4007,2.4005,2.4004,2.3953,2.3953,2.3953,0,0,0,0,0,0,0,0,0,0,0,0,0,2.4162,2.4162,2.4133,2.4133,2.4132,2.4084,2.4083,2.4082,2.4008,2.4007,2.4005,2.4003,2.3953,2.3953,2.3953,0,0,0,0,0,0,0,0,0,0,0,0,0,2.4135,2.4162,2.4133,2.4089,2.4085,2.4084,2.4083,2.4082,2.4008,2.4007,2.4005,2.4003,2.3953,2.3953,2.3953,2.3991,0,0,2.3952,2.3952,0,0,0,0,0,0,0,0,2.4136,2.4134,2.4096,2.4092,2.4087,2.405,2.4074,2.4052,2.4009,2.4037,2.4004,2.4002,2.3987,2.3984,2.3979,2.3989,2.3987,2.3952,2.3952,2.3952,2.3952,0,0,0,0,0,0,0,2.4138,2.4135,2.4114,2.4096,2.409,2.4071,2.4065,2.407,2.4024,2.4035,2.4029,2.4024,2.3984,2.3979,2.3977,2.3986,2.3952,2.3952,2.3952,2.3952,2.4021,2.4023,0,0,0,0,0,0,2.4147,2.4137,2.4115,2.4112,2.4107,2.4072,2.4065,2.4064,2.4024,2.4016,2.4026,2.4021,2.3981,2.3977,2.3975,2.4014,2.3952,2.3952,2.3952,2.4019,2.4021,2.4023,0,0,0,0,0,0,2.4148,2.4145,2.4117,2.4123,2.4118,2.4074,2.4073,2.4064,2.4059,2.4017,2.4008,2.403,2.3979,2.3975,2.3987,2.4012,2.3952,2.3952,2.4017,2.402,2.4022,2.4096,0,0,0,0,0,0,2.4149,2.4146,2.4161,2.4124,2.4118,2.4131,2.4074,2.4064,2.4059,2.4052,2.4018,2.4011,2.3977,2.3988,2.3987,2.401,2.3952,2.4014,2.4018,2.4021,2.4091,2.4101,2.4109,0,0,0,0,0,2.415,2.4184,2.4162,2.416,2.4136,2.4132,2.4129,2.4089,2.4061,2.4075,2.4048,2.4012,2.401,2.3989,2.3988,2.4012,2.4012,2.4017,2.4021,2.4087,2.4099,2.4109,0,0,0,0,0,0,2.4226,2.4179,2.4154,2.4177,2.4159,2.412,2.4136,2.4104,2.4094,2.4088,2.4039,2.4032,2.4049,2.4032,2.401,2.4045,2.4005,2.401,2.4056,2.4067,2.4076,2.4079,2.3951,0,0,0,0,0,2.4245,2.4247,2.4206,2.423,2.4223,2.4181,2.4178,2.4149,2.4129,2.4121,2.4094,2.4076,2.407,2.4068,2.4061,2.4088,2.4078,2.4104,2.4113,2.4121,2.4124,2.4134,2.4144,2.4038,2.4038,2.4038,0,0,2.4286,2.426,2.4264,2.4245,2.4228,2.4229,2.4175,2.418,2.418,2.4122,2.413,2.411,2.4085,2.4104,2.4111,2.409,2.4151,2.4126,2.4133,2.4132,2.414,2.415,2.4159,2.4041,2.404,2.404,0,0,2.4359,2.4341,2.4358,2.4342,2.4316,2.4287,2.4292,2.4256,2.424,2.4248,2.4203,2.4203,2.4196,2.4179,2.4169,2.4234,2.42,2.4233,2.4281,2.4291,2.4299,2.4307,2.4327,2.4335,2.4238,2.4238,2.4238,0,2.4413,2.4414,2.4371,2.4378,2.4369,2.4316,2.4331,2.4317,2.4291,2.4286,2.4263,2.425,2.423,2.4243,2.4258,2.4254,2.4255,2.4237,2.4302,2.4309,2.4315,2.4333,2.4342,2.4242,2.4241,2.4241,2.4241,0,2.4479,2.448,2.4497,2.4471,2.4465,2.4477,2.4435,2.4433,2.4405,2.4378,2.4385,2.4359,2.4344,2.4346,2.4318,2.4354,2.4341,2.4311,2.427,2.4329,2.4346,2.4353,2.4248,2.4246,2.4245,2.4244,0,0,2.4599,2.4549,2.4555,2.4542,2.4508,2.4508,2.4516,2.4501,2.45,2.4483,2.4487,2.4481,2.4451,2.4441,2.4411,2.442,2.4469,2.4388,2.4387,2.4402,2.4503,2.4525,2.4534,2.4447,2.4448,2.4449,2.4504,0,2.4664,2.4675,2.4636,2.4657,2.4656,2.4604,2.461,2.459,2.4565,2.456,2.4533,2.4528,2.4491,2.4484,2.4491,2.4462,2.4489,2.4458,2.4448,2.4448,2.4454,2.4543,2.4566,2.462,2.4511,2.4512,2.4513,0,2.4742,2.4728,2.4748,2.4711,2.4709,2.4716,2.4697,2.4694,2.4669,2.465,2.4637,2.4602,2.4605,2.4567,2.4569,2.4549,2.4543,2.4528,2.4529,2.4525,2.4483,2.4539,2.4636,2.4643,2.4523,2.4522,2.4522,0,2.4824,2.4811,2.482,2.481,2.4768,2.4773,2.4756,2.4729,2.4721,2.4705,2.4699,2.4685,2.4676,2.4664,2.4625,2.4601,2.4631,2.4591,2.4614,2.4615,2.4622,2.4621,2.4717,2.4622,2.4621,2.4621,2.4621,0,2.49,2.4914,2.4856,2.4862,2.4875,2.4829,2.4843,2.482,2.4796,2.4795,2.475,2.475,2.4699,2.4693,2.4663,2.4668,2.4665,2.4648,2.464,2.4651,2.4653,2.4645,2.464,2.4623,2.4623,2.4622,2.4622,0,2.4994,2.4956,2.4962,2.4921,2.4911,2.4922,2.4886,2.4889,2.4861,2.486,2.4857,2.4813,2.4803,2.4763,2.4745,2.4724,2.4738,2.4723,2.4746,2.474,2.4765,2.4762,2.4857,2.4866,2.4767,2.4768,2.4769,0,2.5044,2.5053,2.5012,2.5008,2.4992,2.4987,2.4979,2.4934,2.4927,2.4897,2.4903,2.4889,2.4876,2.4862,2.4828,2.4812,2.4795,2.4829,2.4792,2.4802,2.4792,2.4791,2.479,2.4836,2.4838,2.4839,2.484,0,2.5135,2.5115,2.5106,2.5088,2.508,2.5064,2.5046,2.5045,2.4995,2.4989,2.4978,2.4967,2.4947,2.4933,2.4911,2.4892,2.4856,2.4851,2.4855,2.4866,2.4879,2.487,2.4765,2.4849,2.4848,2.4848,2.4847,2.4847,2.5207,2.5211,2.5182,2.5172,2.5153,2.5137,2.5136,2.5108,2.5098,2.5077,2.5051,2.5043,2.5015,2.4982,2.4965,2.4956,2.4937,2.4944,2.4945,2.4947,2.4952,2.4882,2.4953,2.4952,2.4952,2.4952,2.4951,0,2.5294,2.5272,2.5263,2.5238,2.5229,2.5197,2.5175,2.5169,2.5162,2.5139,2.5126,2.5112,2.5098,2.5062,2.5044,2.5044,2.5027,2.504,2.5039,2.5034,2.4971,2.4968,2.5054,2.5054,2.5054,2.5054,2.5054,2.5054,2.5338,2.5343,2.5319,2.5313,2.5292,2.5283,2.5272,2.5256,2.5237,2.5223,2.5211,2.5187,2.5158,2.5137,2.5122,2.5111,2.5105,2.5124,2.5108,2.5049,2.5039,2.503,2.5027,2.5123,2.5124,2.5171,2.5172,2.5172]}]]